{"data":{"norad_id":62684,"epoch":"2026-09-22T17:18:46.404288Z","epoch_age_seconds":127708,"freshness":"FRESH","line1":"1 62684U 25009CD  26265.72137042  .00006284  00000+0  22751-3 0  9998","line2":"2 62684  97.3831 344.6113 0005249  23.6458 336.5022 15.28745706151350","mean_motion":15.28745706,"eccentricity":0.0005249,"inclination_deg":97.3831,"raan_deg":344.6113,"arg_perigee_deg":23.6458,"mean_anomaly_deg":336.5022,"bstar":0.00022751,"rev_number":15135,"period_min":94.194868011619,"perigee_km":475.96116556346,"apogee_km":483.16037668359,"semimajor_km":6857.6977711235,"source":"CELESTRAK","updated_at":"2026-09-23T09:00:21.549493Z"}}